Airfield :
LOGIN :

Register | Disclaimer

   EN    FR    IT 

 










Legend :    VFR   Marginal VFR   IFR   Intensive IFR   Very Intensive IFR
Visi :
Ceiling :
>= 8 km
>= 3000ft
5 to 8 km
1000 to 3000 ft
1500m to 5 km
500 to 1000 ft
800 to 1500m
200 to 500 ft
< 800m
< 200 ft
Symbols :   Thunderstorms  Fog  Heavy snow  Heavy precipitations  Wind > 20 kt
SIGMETs :     Misc.  Thunderstorms  Icing  Turbulence  Mountain Waves  Volcanic Ashes







- Airport Elevation : 24 ft
- IATA code : IBZ


LEIB - Ibiza

CURRENT METAR :
  • 142300Z 26017KT 9999 FEW025 16/10 Q1013 WS R24 NOSIG

EXPIRED METARs :
  • 142230Z 26016KT 9999 FEW025 16/10 Q1013 WS R24 NOSIG
  • 142200Z 26017KT 9999 FEW025 16/09 Q1014 WS R24 NOSIG

TAF TAF LEIB
Valid from the 14 at 21:00 until the 15 at 21:00 UTC


142000Z 1421/1521 23014KT 9999 FEW030 TX18/1512Z TN08/1506Z
TEMPO 1421/1423 26015G25KT
TEMPO 1509/1514 25015G25KT
BECMG 1513/1515 32009KT
No reported NOTAMs for that airfield.



MET'MAP, your aeronautical weather chart ! - Copyright ORBIFLY December 2007 - Disclaimer

ORBIFLY MET'MAP TEAM :

Programming & Development : Alexandra Zaïnal
Concept & Development : Baudouin d'Aumeries
Co-Development & Prog : Marc-Olivier Méhu
Technical & hardware support : Manuel Goepfert

Contact : metmap@orbifly.com




SOURCES & CREDITS :

   NOAA